Date,TemperatureHighF,TemperatureAvgF,TemperatureLowF,DewpointHighF,DewpointAvgF,DewpointLowF,HumidityHigh,HumidityAvg,HumidityLow,PressureMaxIn,PressureMinIn,WindSpeedMaxMPH,WindSpeedAvgMPH,GustSpeedMaxMPH,PrecipitationSumIn
2013-12-1,71.0,57.0,49.0,48.3,45.8,42.7,87,68,41,30.16,30.07,11,3,13,0.00
2013-12-2,69.0,55.5,43.0,46.1,41.9,37.9,91,63,34,30.11,29.89,9,2,9,0.00
2013-12-3,74.0,58.9,45.0,42.6,37.2,21.8,80,50,16,29.91,29.72,14,3,15,0.00
2013-12-4,67.0,57.7,45.0,47.0,43.3,36.8,100,61,39,29.89,29.71,24,7,27,0.25
2013-12-5,49.0,44.1,38.0,46.0,36.8,25.1,100,78,50,30.03,29.84,10,3,12,0.08
2013-12-6,52.0,41.1,31.0,30.1,25.8,20.6,82,57,31,30.10,30.01,10,3,12,0.00
2013-12-7,57.0,42.9,29.0,34.1,27.4,18.5,90,59,23,30.02,29.91,12,3,13,0.00
2013-12-8,55.0,48.6,44.0,41.8,37.9,28.9,81,67,54,30.05,29.95,10,3,10,0.00
2013-12-9,50.0,41.7,33.0,34.5,22.9,11.7,77,49,30,30.19,30.00,12,3,13,0.00
2013-12-10,60.0,44.1,32.0,22.4,18.9,14.6,59,38,20,30.17,30.02,11,3,11,0.00
2013-12-11,71.0,52.4,38.0,38.9,29.0,20.6,65,42,27,30.12,30.03,10,3,10,0.00
2013-12-12,71.0,54.7,45.0,42.0,35.7,29.8,66,50,35,30.11,29.99,18,4,19,0.00
2013-12-13,62.0,49.7,37.0,35.2,33.2,30.5,82,55,33,30.11,30.02,10,3,10,0.00
2013-12-14,64.0,48.9,36.0,35.0,29.7,23.6,78,50,27,30.21,30.09,8,3,10,0.00
2013-12-15,69.0,51.2,37.0,32.0,27.0,24.2,63,41,22,30.22,30.10,10,3,10,0.00
2013-12-16,76.0,55.8,41.0,34.3,28.9,25.4,56,38,20,30.16,30.08,9,3,10,0.00
2013-12-17,82.0,59.8,45.0,33.3,29.5,26.9,51,34,15,30.17,30.04,8,3,9,0.00
2013-12-18,79.0,60.4,48.0,36.1,30.7,27.2,47,34,17,30.04,29.81,10,3,10,0.00
2013-12-19,70.0,60.7,50.0,42.7,30.2,25.5,73,33,20,29.84,29.67,21,7,24,0.00
2013-12-20,54.0,46.5,43.0,46.0,42.4,37.4,100,86,62,29.79,29.62,24,4,24,0.44
2013-12-21,52.0,46.5,42.0,46.0,40.6,35.4,100,81,57,29.99,29.78,15,3,18,0.01
2013-12-22,59.0,47.4,37.0,42.9,38.4,34.2,96,73,45,30.20,29.99,10,3,10,0.00
2013-12-23,64.0,48.6,37.0,39.9,35.4,29.8,92,64,34,30.26,30.16,8,2,8,0.00
2013-12-24,69.0,50.1,35.0,36.1,30.7,26.6,73,50,24,30.16,30.05,10,3,11,0.00
2013-12-25,66.0,51.4,39.0,36.9,32.0,27.9,72,49,29,30.18,30.09,8,3,9,0.00
2013-12-26,69.0,51.2,38.0,32.0,27.3,23.3,68,42,20,30.15,30.05,10,3,10,0.00
2013-12-27,69.0,51.0,38.0,30.2,25.7,21.2,62,40,19,30.15,30.04,8,3,10,0.00
2013-12-28,66.0,50.2,35.0,31.2,25.3,20.3,61,39,23,30.07,1.00,9,2,10,0.00
2013-12-29,65.0,52.2,41.0,35.1,30.5,25.3,63,45,23,30.07,29.90,13,3,13,0.00
2013-12-30,67.0,50.9,38.0,32.8,28.1,23.8,61,43,25,30.21,30.07,10,3,11,0.00
2013-12-31,74.0,51.9,37.0,30.8,26.7,23.4,62,41,17,30.20,30.06,8,2,8,0.00